Location: Unspecified
(0.0000°N, 0.0000°E)
Time: 06:31:46
(UTC+00:00)

Vanguard 1 Rocket - Pass Details

Date: 26 November 2019
Orbit: 650 x 4226 km, 34.3° (Epoch: 10 December)

Event Time Altitude Azimuth Distance (km) Brightness Sun altitude
Rises 12:55:22 0° 257° (WSW) 5,923 11.8 63.2°
Reaches altitude 10° 12:59:58 10° 244° (WSW) 5,440 11.9 62.5°
Maximum altitude 13:13:43 26° 193° (SSW) 5,436 12.2 60.3°
Drops below altitude 10° 13:32:47 10° 145° (SE) 7,423 12.2 56.8°
Sets 13:41:06 0° 132° (SE) 8,424 12.3 55.2°
